This is the latest recevied weather packets stored in our database for station/object KC4GS-13. If no packets are shown the sender has not sent any weather packets the latest 10 day(s).
| Time | Temp. | Humidity | Pressure | Rain* | Wind** | Luminosity | Snow |
|---|---|---|---|---|---|---|---|
| 1788031402 | 31.11° C | 67% | 1021.1 hPa | 0 mm | - | 197 W/m² | - |
| 1788031098 | 31.67° C | 66% | 1021.3 hPa | 0 mm | - | 216 W/m² | - |
| 1788030797 | 31.67° C | 66% | 1021.3 hPa | 0 mm | - | 294 W/m² | - |
| 1788030497 | 31.67° C | 66% | 1021.4 hPa | 0 mm | - | 411 W/m² | - |
| 1788030192 | 31.11° C | 65% | 1021.3 hPa | 0 mm | - | 283 W/m² | - |
| 1788029892 | 31.67° C | 66% | 1021.5 hPa | 0 mm | - | 426 W/m² | - |
| 1788029588 | 31.11° C | 67% | 1021.5 hPa | 0 mm | - | 477 W/m² | - |
| 1788029282 | 30.56° C | 69% | 1021.6 hPa | 0 mm | - | 588 W/m² | - |
| 1788028982 | 30° C | 69% | 1021.8 hPa | 0 mm | - | 187 W/m² | - |
| 1788028681 | 30° C | 69% | 1021.8 hPa | 0 mm | - | 156 W/m² | - |
| 1788028375 | 30° C | 68% | 1021.9 hPa | 0 mm | - | 158 W/m² | - |
| 1788028071 | 30.56° C | 70% | 1022 hPa | 0 mm | - | 142 W/m² | - |
| 1788027766 | 30° C | 70% | 1021.9 hPa | 0 mm | - | 184 W/m² | - |
| 1788027466 | 30.56° C | 70% | 1022 hPa | 0 mm | - | 186 W/m² | - |
| 1788027160 | 30.56° C | 69% | 1022 hPa | 0 mm | - | 180 W/m² | - |
| 1788026860 | 30.56° C | 69% | 1022 hPa | 0 mm | - | 197 W/m² | - |
| 1788026556 | 30.56° C | 69% | 1021.9 hPa | 0 mm | - | 214 W/m² | - |
| 1788026255 | 30° C | 69% | 1022.2 hPa | 0 mm | - | 452 W/m² | - |
| 1788025950 | 30° C | 69% | 1022.2 hPa | 0 mm | - | 385 W/m² | - |
| 1788025650 | 30° C | 70% | 1022.2 hPa | 0 mm | - | 230 W/m² | - |
| 1788025349 | 30° C | 68% | 1022.1 hPa | 0 mm | - | 311 W/m² | - |
| 1788025045 | 30° C | 67% | 1022.3 hPa | 0 mm | - | 256 W/m² | - |
| 1788024739 | 30° C | 68% | 1022.3 hPa | 0 mm | - | 406 W/m² | - |
| 1788024435 | 30° C | 69% | 1022.1 hPa | 0 mm | - | 435 W/m² | - |
| 1788024135 | 30° C | 68% | 1022.1 hPa | 0 mm | - | 360 W/m² | - |
* Rain latest hour (hover to see other rain measurements)
** Current wind speed in m/s (hover to see current wind gust speed)